Weather in Srednyaya Tursha

Russia / Mari El Republic     56°52′37″N   47°34′40″E
temp.,
°C
wind,
m/s
gust,
m/s
humid.,
%
clouds,
%
prec.,
mm/h
press.,
hPa
HPBL,
m
25 february, thu
thu2500:00−22s239694 0.0 103436
03:00−23s359897 0.0 1032101
06:00−21sse4894100 0.0 1028255
09:00−19sse51094100 0.1 1024326
12:00−17sse61195100 1.1 1021500
15:00−15sse61194100 2.2 1019623
18:00−15se51094100 0.9 1017563
21:00−16se5109397 1.1 1016376
26 february, fri
fri2600:00−17ese499499 0.1 1016334
03:00−17se489598 0.1 1017330
06:00−19ese379790 0.1 1015201
09:00−18se489494 0.1 1015322
12:00−14se5992100 0.0 1013428
15:00−13se61191100 0.1 1011510
18:00−13se81493100 0.5 1005511
21:00−12se71594100 4.8 1001606
27 february, sat
sat2700:00−11se61194100 3.5 998475
03:00−11ese5994100 4.3 997313
06:00−12ese4894100 0.6 996257
09:00−11e4894100 0.8 997295
12:00−10ene599299 0.1 998389
15:00−10ene599199 0.3 1000447
18:00−12ne4109298 0.1 1002451
21:00−13ne499397 0.1 1004321
28 february, sun
sun2800:00−13nne5993100 0.3 1005400
03:00−17n4995100 0.3 1008258
06:00−19n499697 0.0 1009231
09:00−18nne489490 0.0 1010269
12:00−15n479275 0.0 1012386
15:00−13n479084 0.0 1013520
18:00−17n3696100 0.0 1015127
21:00−20n339870 0.0 101870
1 march, mon
mon100:00−22n34980 0.0 101962
03:00−23n34980 0.0 102173
06:00−23n23980 0.0 102237
09:00−19nnw23950 0.0 1023130
12:00−14wnw238835 0.0 1023279
15:00−11wsw358827 0.0 1022309
18:00−11sw499598 0.0 1020264
21:00−10sw5109599 0.1 1018331